Minot, ND

3:07 PM CST on February 24, 2017 (GMT -0600)
Minot International

Weather History for KMOT - December, 2012

Change the Weather History Date:

Saturday, December 1, 2012

  Actual Average Record
Temperature  
Mean Temperature 32 °F 20 °F  
Max Temperature 37 °F 28 °F 54 °F (1969)
Min Temperature 26 °F 12 °F -25 °F (1926)
Degree Days  
Heating Degree Days 33 45  
Month to date heating degree days 33 45  
Since 1 July heating degree days 2117 2103  
Moisture  
Dew Point 27 °F    
Average Humidity 91    
Maximum Humidity 100    
Minimum Humidity 82    
Precipitation  
Precipitation T in 0.01 in 0.20 in (1902)
Month to date precipitation T 0.01  
Year to date precipitation 13.54 16.82  
Sea Level Pressure  
Sea Level Pressure 29.75 in    
Wind  
Wind Speed 7 mph (NW)    
Max Wind Speed 20 mph    
Max Gust Speed 24 mph    
Visibility 3 miles    
Events Fog    
T = Trace of Precipitation, MM = Missing Value Source: NWS Daily Summary

Daily Weather History Graph

Daily Weather History Graph

Search for Another Location

Airport or City:

Trip Planner

Search our weather history database for the weather conditions in past years. The results will help you decide how hot, cold, wet, or windy it might be!

Date:

Astronomy

Dec. 01, 2012 Rise Set
Actual Time 8:15 AM CST 4:52 PM CST
Civil Twilight 7:39 AM CST 5:28 PM CST
Nautical Twilight 7:00 AM CST 6:07 PM CST
Astronomical Twilight 6:22 AM CST 6:45 PM CST
Moon 7:49 PM CST (12/1) 10:26 AM CST (12/1)
Length of Visible Light 9h 48m
Length of Day
8h 37m
Waning Gibbous, 91% of the Moon is Illuminated
Dec 1
Waning Gibbous
Dec 6
Last Quarter
Dec 13
New
Dec 19
First Quarter
Dec 28
Full

Hourly Weather History & Observations

Time (CST) Temp. Windchill Dew Point Humidity Pressure Visibility Wind Dir Wind Speed Gust Speed Precip Events Conditions
12:54 AM 30.0 °F 25.2 °F 26.1 °F 85% 29.68 in 7.0 mi East 4.6 mph - N/A   Overcast
1:54 AM 30.0 °F 25.2 °F 26.1 °F 85% 29.65 in 7.0 mi SSE 4.6 mph - N/A   Overcast
2:54 AM 30.0 °F - 26.1 °F 85% 29.66 in 7.0 mi Calm Calm - N/A   Overcast
3:54 AM 28.4 °F 21.2 °F 26.6 °F 93% 29.61 in 7.0 mi WSW 6.9 mph - N/A   Overcast
4:20 AM 30.2 °F - 26.6 °F 86% 29.62 in 9.0 mi Calm Calm - N/A   Overcast
4:35 AM 33.8 °F 27.0 °F 28.4 °F 81% 29.62 in 10.0 mi WSW 8.1 mph - N/A   Overcast
4:54 AM 33.8 °F 25.3 °F 28.4 °F 81% 29.62 in 10.0 mi West 11.5 mph - N/A   Overcast
5:05 AM 35.6 °F 27.5 °F 30.2 °F 81% 29.62 in 10.0 mi West 11.5 mph - N/A   Overcast
5:14 AM 35.6 °F 27.5 °F 30.2 °F 81% 29.63 in 10.0 mi West 11.5 mph - N/A   Overcast
5:54 AM 37.0 °F 28.9 °F 33.1 °F 86% 29.70 in 10.0 mi West 12.7 mph - N/A   Overcast
6:54 AM 36.0 °F 27.5 °F 33.1 °F 89% 29.73 in 10.0 mi WNW 12.7 mph - N/A   Overcast
7:54 AM 34.0 °F 24.2 °F 30.9 °F 89% 29.76 in 7.0 mi WNW 15.0 mph - N/A   Overcast
8:31 AM 30.2 °F 19.8 °F 28.4 °F 93% 29.72 in 1.2 mi NW 13.8 mph - N/A   Overcast
8:41 AM 30.2 °F 19.8 °F 28.4 °F 93% 29.72 in 1.2 mi WNW 13.8 mph - N/A   Overcast
8:54 AM 28.4 °F 16.2 °F 26.6 °F 93% 29.72 in 1.2 mi WNW 17.3 mph - N/A   Overcast
9:54 AM 27.0 °F 15.6 °F 26.1 °F 96% 29.80 in 1.0 mi WNW 13.8 mph - N/A   Overcast
10:07 AM 26.6 °F 16.2 °F 26.6 °F 100% 29.74 in 0.5 mi WNW 11.5 mph - N/A Fog Light Freezing Fog
10:54 AM 28.0 °F 18.6 °F 27.0 °F 96% 29.82 in 0.5 mi West 10.4 mph - N/A Fog Light Freezing Fog
11:01 AM 28.4 °F 19.1 °F 26.6 °F 93% 29.75 in 1.2 mi West 10.4 mph - N/A   Overcast
11:12 AM 28.4 °F 21.2 °F 26.6 °F 93% 29.75 in 0.8 mi West 6.9 mph - N/A   Overcast
11:54 AM 28.4 °F 19.7 °F 26.6 °F 93% 29.75 in 0.8 mi WNW 9.2 mph - N/A   Overcast
12:01 PM 28.4 °F 19.1 °F 26.6 °F 93% 29.75 in 1.8 mi WNW 10.4 mph - N/A   Overcast
12:54 PM 28.0 °F 20.0 °F 27.0 °F 96% 29.82 in 1.5 mi WNW 8.1 mph - N/A   Overcast
1:27 PM 28.4 °F 19.7 °F 26.6 °F 93% 29.77 in 2.0 mi NW 9.2 mph - N/A   Overcast
1:54 PM 28.0 °F 19.3 °F 27.0 °F 96% 29.84 in 2.5 mi WNW 9.2 mph - N/A   Overcast
2:10 PM 28.4 °F 20.4 °F 26.6 °F 93% 29.77 in 1.5 mi WNW 8.1 mph - N/A   Overcast
2:54 PM 28.4 °F 20.4 °F 26.6 °F 93% 29.77 in 1.5 mi NW 8.1 mph - N/A   Overcast
3:54 PM 28.0 °F - 25.0 °F 88% 29.83 in 1.5 mi Calm Calm - N/A   Overcast
4:01 PM 28.4 °F - 24.8 °F 86% 29.76 in 3.0 mi Calm Calm - N/A   Overcast
4:27 PM 28.4 °F 21.2 °F 26.6 °F 93% 29.74 in 3.0 mi ENE 6.9 mph - N/A   Overcast
4:43 PM 28.4 °F 23.3 °F 26.6 °F 93% 29.78 in 3.0 mi NW 4.6 mph - N/A   Overcast
4:54 PM 28.0 °F 24.2 °F 26.1 °F 92% 29.86 in 3.0 mi WNW 3.5 mph - N/A   Overcast
5:23 PM 28.4 °F 23.3 °F 26.6 °F 93% 29.79 in 5.0 mi NW 4.6 mph - N/A   Overcast
5:54 PM 28.0 °F 24.2 °F 26.1 °F 92% 29.85 in 5.0 mi NW 3.5 mph - N/A   Overcast
6:50 PM 26.6 °F 21.2 °F 26.6 °F 100% 29.78 in 1.8 mi NE 4.6 mph - N/A   Overcast
6:54 PM 27.0 °F 23.0 °F 26.1 °F 96% 29.85 in 0.5 mi NE 3.5 mph - N/A Fog Light Freezing Fog
7:54 PM 26.1 °F 20.5 °F 25.0 °F 96% 29.86 in 0.5 mi ENE 4.6 mph - N/A Fog Light Freezing Fog
8:01 PM 26.6 °F 20.0 °F 24.8 °F 93% 29.79 in 0.2 mi ENE 5.8 mph - N/A Fog Light Freezing Fog
8:54 PM 26.1 °F 19.4 °F 25.0 °F 96% 29.86 in 0.2 mi ENE 5.8 mph - N/A Fog Light Freezing Fog
9:54 PM 26.1 °F 18.4 °F 25.0 °F 96% 29.84 in 0.2 mi ESE 6.9 mph - 0.00 in Fog Light Freezing Fog
10:41 PM 26.6 °F 20.0 °F 26.6 °F 100% 29.77 in 0.2 mi ESE 5.8 mph - N/A Fog Light Freezing Fog
10:54 PM 27.0 °F 21.6 °F 26.1 °F 96% 29.83 in 0.2 mi ESE 4.6 mph - N/A Fog Light Freezing Fog
11:20 PM 28.4 °F 24.6 °F 26.6 °F 93% 29.76 in 0.2 mi ESE 3.5 mph - N/A Fog Light Freezing Fog
11:54 PM 28.9 °F 23.9 °F 28.0 °F 96% 29.82 in 0.2 mi East 4.6 mph - N/A Fog Light Freezing Fog